Location: Newark
(3.0500°N, 36.0167°E)
Time: 09:08:17
(UTC+00:00)

A-11 Canister half - Pass Details

Date: 02 September 2019
Orbit: 1527 x 1682 km, 47.3° (Epoch: 23 September)

Event Time Altitude Azimuth Distance (km) Brightness Sun altitude
Rises 15:15:02 0° 318° (NW) 4,921 12.5 5.5°
Reaches altitude 10° 15:18:13 10° 317° (NW) 3,928 12.1 4.7°
Maximum altitude 15:28:19 80° 231° (SW) 1,674 9.4 2.2°
Drops below altitude 10° 15:38:11 10° 145° (SE) 3,839 10.7 -0.2°
Sets 15:41:15 0° 143° (SE) 4,805 11.2 -1.0°
